Location: Ballingbuur
(53.0000°N, 5.7667°E)
Time: 05:19:04
(UTC+00:00)

USA 306 - Pass Details

Date: 29 November 2020
Orbit: 565 x 579 km, 54.0° (Epoch: 22 January)

Event Time Altitude Azimuth Distance (km) Brightness Sun altitude
Exits shadow 05:49:10 22° 283° (WNW) 1,288 4.1 -13.6°
Maximum altitude 05:51:54 85° 199° (SSW) 588 2.9 -13.2°
Drops below altitude 10° 05:56:14 10° 108° (ESE) 1,893 7.1 -12.6°
Sets 05:58:29 0° 108° (ESE) 2,790 8.6 -12.3°
